Temp
62 62 62 62 61 60 60 60 58 59 58 57 59 57 59 61 61 61 61 62 61 62 63 63 63 62 55 46 45 60 67 65 61 57 51 49 44 40 35 36 39 34 38 42 44 44 44
61 62 62 61 60 60 59 59 58 58 57 57 56 57 59 61 61 61 61 60 60 62 63 63 62 61 52 40 57 60 60 59 57 54 50 49 45 44 39 36 35 36 38 39 42 42 43
62 62 62 61 60 60 59 59 58 58 58 57 55 58 60 60 60 60 60 61 61 62 63 63 62 58 50 47 57 58 60 54 55 54 49 50 50 45 40 35 40 38 33 36 38 40 40
61 62 62 61 60 59 58 58 58 58 58 59 60 60 60 59 59 60 61 61 60 60 62 62 61 53 44 58 56 58 55 54 56 56 53 52 51 45 40 39 37 32 30 27 36 39 42
62 62 61 61 60 59 58 57 57 57 58 59 60 59 59 59 59 60 60 60 61 62 62 61 53 50 42 60 53 53 54 51 51 52 53 56 49 39 38 29 26 29 20 23 31 40 39
62 61 61 61 60 60 60 60 59 59 59 59 58 58 58 59 59 59 59 60 61 60 59 59 56 45 47 46 51 53 53 54 49 47 45 43 35 29 28 24 17 19 18 24 25 34 36
61 61 60 61 60 60 60 60 60 59 58 58 58 58 57 59 58 58 56 53 47 45 47 42 43 44 47 51 54 51 53 50 48 42 32 36 27 23 26 29 28 26 25 25 32 38 33
61 61 60 61 61 60 60 60 59 59 59 60 58 58 57 56 56 57 53 45 45 49 40 48 49 49 51 52 44 48 53 41 39 30 36 31 21 33 35 34 31 28 29 27 33 37 34
61 61 60 60 60 60 59 59 59 59 59 59 58 58 58 57 56 53 48 45 50 49 40 44 47 47 47 50 43 44 49 45 38 37 37 28 32 39 36 35 32 29 27 28 27 35 35
60 60 60 59 59 59 58 59 59 58 57 58 58 57 57 57 51 47 44 48 48 48 28 36 42 46 49 47 40 50 51 45 37 35 34 30 37 35 33 33 34 29 36 35 33 31 27
60 60 59 59 59 59 59 58 58 58 57 57 57 57 56 55 45 45 47 47 47 45 17 39 42 53 48 42 43 43 50 43 34 37 36 31 33 36 34 36 39 34 41 38 36 33 31
60 59 59 59 58 58 58 58 58 57 56 56 56 55 55 48 45 45 46 46 45 27 14 30 41 40 39 42 43 44 46 48 45 39 40 37 41 39 38 41 43 44 38 36 36 32 21
59 59 58 58 58 58 58 58 57 57 57 56 55 55 51 49 42 46 45 42 26 19 35 32 33 39 39 39 41 40 38 38 34 31 21 34 34 37 40 35 42 39 32 22 19 17 19
59 58 58 58 58 58 58 58 58 57 57 56 55 52 49 48 45 44 43 34 20 32 31 39 38 37 33 38 39 40 37 34 37 38 34 24 25 34 40 37 36 35 34 27 15 22 24
58 58 58 58 58 58 58 58 57 57 56 56 53 43 43 46 46 44 39 22 25 32 37 37 37 32 32 37 37 37 34 34 36 37 32 27 27 41 40 42 40 36 33 38 31 32 25
57 57 57 57 57 57 57 57 57 57 56 54 42 40 42 46 44 42 32 30 31 38 40 39 32 34 29 33 33 32 32 38 37 39 38 34 29 38 43 43 42 38 42 30 27 24 21
57 57 57 56 56 56 57 57 57 57 56 53 40 38 45 45 43 37 26 29 36 43 42 38 34 32 33 32 33 31 34 38 40 38 39 34 32 33 38 35 33 34 32 33 32 30 23
58 57 56 56 56 56 56 57 57 57 55 47 37 32 44 44 34 30 31 34 44 41 42 40 39 38 34 34 32 32 32 37 42 40 34 37 31 25 31 38 38 35 32 31 22 26 26
58 58 57 56 56 56 56 56 57 57 54 41 35 34 43 43 28 29 35 38 40 39 39 40 39 41 39 35 31 34 36 44 43 40 35 37 28 20 27 33 36 32 34 33 32 28 24
57 57 57 56 56 55 56 56 56 57 55 42 36 30 36 36 33 32 31 34 36 42 41 41 40 40 37 34 36 34 35 41 43 41 49 43 31 29 22 30 32 31 33 32 29 20 26
56 57 57 56 56 56 56 56 56 56 55 44 35 32 33 27 33 32 32 34 34 36 40 41 37 37 34 31 32 32 35 38 41 44 38 37 29 27 31 33 33 33 33 33 25 29 25
56 56 57 56 56 56 56 55 55 56 55 41 36 34 33 31 33 30 34 32 34 37 37 36 35 38 35 32 33 31 33 32 32 38 34 36 29 30 28 32 32 31 33 33 33 31 31
55 55 56 56 56 56 56 55 55 55 51 40 38 38 37 34 31 30 32 34 37 38 40 40 38 36 35 38 39 39 39 38 36 33 34 32 30 27 24 29 29 27 31 33 33 33 34
55 55 55 56 56 56 55 55 55 54 50 42 39 38 34 31 31 33 35 37 37 37 36 39 39 35 39 41 40 36 34 36 35 35 36 32 30 28 23 26 20 33 34 34 35 36 36
56 55 55 55 55 55 55 55 55 55 52 42 38 39 34 30 32 33 35 35 37 38 36 39 41 43 40 38 35 32 31 32 33 33 33 35 30 27 22 20 30 31 33 34 33 35 37
56 55 55 55 55 54 54 55 55 55 52 42 38 39 37 32 31 35 34 35 33 31 34 37 41 41 39 35 33 28 25 27 28 30 33 33 32 29 25 22 24 33 34 38 36 30 37
56 55 55 55 54 54 54 54 54 55 54 44 39 40 38 32 34 36 33 34 35 32 32 33 36 35 37 32 31 27 27 29 26 25 27 28 27 25 25 22 28 35 37 39 27 35 35
55 55 55 54 54 54 54 54 54 54 54 46 41 40 40 33 34 37 39 36 35 34 33 36 36 35 33 32 30 28 26 28 25 29 27 29 24 23 23 21 22 37 36 34 39 35 35
55 55 54 54 54 53 54 54 56 55 54 49 40 42 42 37 37 40 41 42 43 42 37 35 35 35 36 31 30 29 30 26 26 26 27 27 32 30 31 32 39 37 40 41 39 39 37
MSLP
1015.17 1014.76 1014.41 1013.74 1013.49 1013.32 1013.17 1013.18 1013.15 1013.08 1013.18 1013.28 1013.48 1013.83 1014.10 1014.11 1014.31 1014.55 1014.49 1014.64 1014.78 1014.07 1015.21 1015.90 1016.43 1016.82 1016.87 1017.69 1018.82 1018.26 1017.86 1017.81 1017.80 1017.96 1018.37 1018.52 1018.90 1019.49 1020.21 1020.71 1021.01 1021.34 1021.32 1021.08 1020.76 1020.35 1020.00
1015.33 1014.81 1014.32 1013.96 1013.71 1013.44 1013.39 1013.32 1013.42 1013.38 1013.37 1013.60 1013.82 1013.94 1014.10 1014.09 1014.14 1014.38 1014.50 1014.67 1014.81 1014.69 1015.52 1015.98 1016.80 1017.13 1017.10 1018.37 1018.83 1018.42 1018.46 1018.50 1018.68 1018.68 1018.96 1019.05 1019.63 1019.97 1020.72 1021.44 1021.80 1021.94 1021.70 1021.37 1020.69 1020.23 1019.96
1015.42 1015.11 1014.56 1014.27 1014.13 1013.90 1013.77 1013.71 1013.78 1013.63 1013.54 1013.83 1013.64 1013.90 1013.90 1014.02 1014.14 1014.35 1014.42 1014.65 1014.70 1015.22 1015.92 1016.40 1017.17 1017.54 1017.87 1019.23 1019.01 1018.89 1018.86 1019.25 1019.08 1019.39 1019.50 1019.71 1019.66 1020.22 1021.00 1021.61 1021.88 1021.99 1021.96 1021.27 1020.65 1020.36 1019.97
1015.98 1015.56 1014.94 1014.61 1014.70 1014.54 1014.30 1014.16 1014.02 1014.01 1013.95 1013.97 1013.97 1013.99 1014.05 1014.16 1013.94 1013.83 1013.96 1014.56 1015.14 1015.77 1016.28 1017.12 1017.50 1017.84 1019.00 1019.36 1019.26 1019.26 1019.48 1019.60 1019.55 1019.76 1019.77 1020.01 1019.90 1020.73 1021.47 1021.88 1022.22 1022.64 1022.74 1022.20 1020.97 1020.52 1019.96
1016.28 1015.98 1015.64 1015.20 1015.52 1015.32 1015.14 1014.71 1014.54 1014.48 1014.35 1014.24 1014.32 1014.43 1014.49 1014.42 1014.20 1013.98 1014.27 1015.14 1015.47 1016.16 1016.99 1017.54 1017.93 1018.19 1019.73 1019.48 1019.72 1019.95 1019.83 1020.12 1020.05 1020.10 1020.15 1020.18 1020.45 1021.93 1022.39 1023.07 1023.60 1024.01 1023.91 1023.12 1021.77 1020.68 1020.56
1016.83 1016.57 1016.40 1015.97 1016.17 1015.99 1015.63 1015.32 1015.08 1014.85 1014.63 1014.71 1014.90 1014.77 1014.29 1014.09 1014.81 1014.77 1015.06 1015.52 1016.13 1016.73 1017.60 1017.67 1018.20 1019.14 1020.22 1020.22 1020.26 1020.22 1020.01 1020.12 1020.45 1020.59 1020.97 1021.33 1022.19 1023.00 1023.68 1024.05 1024.73 1024.71 1024.29 1023.35 1022.44 1020.99 1020.51
1017.37 1017.19 1017.05 1016.84 1016.54 1016.45 1016.16 1016.13 1015.79 1015.25 1014.93 1014.40 1015.14 1015.15 1014.51 1015.08 1015.16 1015.87 1016.07 1016.14 1016.80 1018.25 1018.85 1019.64 1019.82 1019.85 1020.14 1020.38 1020.26 1020.36 1020.32 1020.46 1020.84 1021.38 1022.12 1022.55 1023.44 1023.98 1024.12 1024.23 1024.30 1024.24 1023.90 1023.28 1021.39 1020.76 1020.48
1017.71 1017.74 1017.69 1017.52 1017.31 1017.03 1016.93 1016.84 1016.49 1016.01 1015.22 1014.09 1015.19 1015.81 1016.11 1016.67 1016.84 1017.07 1017.13 1017.74 1018.78 1019.21 1020.02 1020.18 1020.07 1020.25 1020.40 1020.35 1020.64 1020.61 1020.51 1020.92 1021.37 1022.09 1022.37 1023.09 1023.51 1023.42 1023.50 1023.60 1023.62 1023.54 1023.21 1022.22 1020.62 1019.68 1019.91
1018.07 1018.42 1018.43 1018.28 1018.24 1017.92 1017.54 1017.58 1017.38 1017.10 1016.66 1016.36 1016.72 1016.86 1017.00 1017.43 1017.50 1017.60 1018.35 1019.11 1019.25 1019.16 1020.25 1021.11 1020.87 1020.79 1020.60 1020.39 1020.83 1020.84 1020.69 1021.08 1021.66 1022.07 1022.49 1023.09 1022.84 1022.59 1022.76 1022.68 1022.77 1022.48 1022.10 1021.20 1020.60 1019.53 1019.07
1018.83 1018.59 1019.00 1019.00 1018.86 1018.70 1018.41 1017.90 1017.84 1018.07 1017.92 1017.73 1017.71 1018.09 1018.10 1017.80 1018.02 1018.80 1019.30 1019.64 1019.52 1019.51 1020.39 1021.89 1021.26 1020.71 1020.67 1020.53 1021.02 1020.96 1021.07 1021.53 1021.85 1022.27 1022.45 1022.45 1021.98 1021.97 1022.01 1021.78 1021.71 1021.26 1020.01 1020.02 1019.96 1019.84 1018.71
1019.73 1019.24 1019.32 1019.51 1019.44 1019.28 1019.15 1018.98 1018.68 1018.90 1018.84 1018.67 1018.50 1018.52 1018.55 1018.24 1019.04 1019.66 1020.15 1019.73 1019.50 1019.52 1021.10 1022.22 1021.23 1020.59 1020.57 1020.87 1021.14 1021.21 1021.29 1021.47 1021.91 1022.07 1022.53 1021.54 1021.41 1021.36 1021.15 1020.49 1020.36 1019.62 1018.99 1019.07 1018.96 1018.85 1018.37
1020.72 1020.15 1019.62 1019.75 1019.78 1019.80 1019.73 1019.67 1019.70 1019.55 1019.56 1019.37 1019.34 1019.05 1018.70 1019.02 1019.58 1020.22 1019.98 1019.68 1019.67 1020.61 1022.69 1022.25 1021.32 1020.91 1020.90 1020.89 1021.09 1021.37 1021.40 1021.62 1021.84 1021.91 1021.59 1021.00 1020.86 1020.77 1020.28 1019.74 1019.21 1018.39 1018.42 1018.22 1018.15 1018.31 1018.11
1021.45 1021.10 1020.54 1020.08 1020.04 1019.99 1020.09 1020.14 1020.13 1019.91 1019.80 1019.80 1019.64 1019.59 1019.45 1019.83 1020.47 1020.03 1019.78 1020.08 1020.78 1021.63 1023.03 1022.35 1021.57 1021.30 1021.02 1020.87 1020.99 1021.34 1021.45 1021.55 1021.68 1021.78 1021.27 1020.34 1020.10 1019.66 1019.60 1019.27 1018.39 1018.37 1018.22 1018.26 1018.23 1018.08 1017.31
1021.93 1021.67 1021.33 1020.67 1020.38 1020.37 1020.32 1020.47 1020.50 1020.36 1020.22 1019.90 1019.75 1019.81 1020.29 1020.44 1020.42 1020.18 1020.08 1020.75 1021.96 1022.84 1022.38 1021.74 1021.55 1021.42 1021.22 1020.90 1020.80 1020.92 1021.04 1021.04 1021.20 1021.49 1021.31 1021.20 1019.51 1018.97 1018.65 1018.41 1018.10 1017.95 1018.19 1018.16 1018.26 1017.66 1016.87
1022.31 1022.16 1021.94 1021.44 1020.91 1020.82 1020.85 1020.68 1020.63 1020.58 1020.25 1019.94 1020.02 1020.58 1020.44 1020.11 1020.04 1019.97 1020.73 1021.58 1022.58 1022.44 1021.81 1021.43 1021.32 1021.22 1021.12 1020.84 1020.86 1020.67 1020.64 1020.74 1020.64 1021.00 1021.43 1021.03 1019.60 1018.12 1017.91 1017.57 1017.78 1017.44 1017.69 1017.63 1017.68 1017.13 1016.94
1022.85 1022.45 1022.37 1022.04 1021.64 1021.15 1020.95 1021.01 1020.92 1020.61 1020.28 1020.09 1020.70 1021.09 1020.71 1020.32 1020.10 1020.44 1021.42 1022.44 1022.42 1021.76 1021.26 1020.93 1020.88 1020.92 1020.86 1020.61 1020.68 1020.68 1020.20 1019.94 1020.12 1020.32 1020.53 1020.73 1019.99 1018.04 1017.24 1017.20 1017.24 1017.23 1017.38 1017.56 1017.51 1017.39 1016.99
1022.90 1022.68 1022.66 1022.47 1022.03 1021.70 1021.32 1021.11 1021.01 1020.77 1020.50 1020.42 1021.04 1021.45 1020.52 1020.47 1020.41 1020.87 1022.56 1022.66 1021.92 1021.10 1020.81 1020.64 1020.53 1020.49 1020.41 1020.44 1020.30 1020.19 1019.77 1019.57 1019.66 1019.90 1020.12 1020.38 1020.55 1018.50 1017.68 1017.18 1017.33 1017.45 1017.45 1017.59 1017.63 1017.74 1017.90
1022.71 1022.65 1022.53 1022.38 1022.44 1022.12 1021.57 1021.33 1021.05 1021.10 1020.76 1020.80 1021.60 1021.82 1020.79 1020.40 1021.37 1022.55 1022.74 1022.06 1021.46 1020.96 1020.62 1020.45 1020.21 1019.99 1020.00 1020.02 1019.96 1019.92 1019.67 1019.35 1019.13 1019.42 1019.88 1020.10 1020.40 1019.99 1018.49 1017.72 1017.52 1017.44 1017.57 1017.97 1018.40 1018.38 1018.22
1022.70 1022.33 1022.52 1022.34 1022.24 1022.18 1022.03 1021.59 1021.38 1021.10 1021.02 1021.51 1022.57 1022.37 1020.92 1020.94 1022.40 1023.33 1022.59 1021.86 1021.12 1020.73 1020.58 1020.41 1020.18 1020.04 1019.82 1019.91 1020.01 1019.66 1019.32 1018.75 1018.89 1019.26 1019.51 1019.86 1020.46 1020.34 1019.10 1018.36 1017.46 1017.74 1017.87 1018.15 1018.40 1018.77 1018.49
1023.26 1022.50 1022.35 1022.25 1022.12 1022.21 1022.03 1021.86 1021.60 1021.30 1021.10 1021.61 1022.98 1023.09 1022.46 1022.73 1023.77 1023.32 1022.90 1022.18 1021.23 1020.66 1020.48 1020.37 1020.36 1020.15 1020.16 1020.03 1019.96 1019.75 1019.42 1018.95 1019.02 1019.12 1019.27 1019.74 1020.35 1020.45 1020.04 1019.20 1018.83 1018.25 1017.84 1018.08 1018.42 1019.00 1018.44
1023.35 1023.00 1022.52 1022.18 1022.07 1021.97 1022.01 1021.87 1021.52 1021.37 1021.10 1021.82 1023.20 1024.68 1024.79 1024.63 1024.46 1023.85 1023.11 1022.31 1021.52 1020.90 1020.65 1020.60 1020.63 1020.72 1020.87 1020.70 1020.32 1020.13 1019.88 1019.58 1019.27 1019.46 1019.70 1020.17 1020.42 1020.37 1019.74 1019.12 1018.91 1018.33 1017.91 1017.80 1018.02 1017.99 1018.06
1023.04 1022.90 1022.71 1022.50 1022.05 1021.95 1021.87 1021.89 1021.65 1021.39 1021.16 1021.80 1023.64 1024.16 1024.56 1024.77 1024.40 1023.84 1023.25 1022.44 1021.79 1021.30 1021.07 1020.84 1020.85 1020.81 1020.89 1020.95 1020.69 1020.60 1020.54 1020.46 1020.40 1020.03 1020.18 1020.46 1020.57 1020.52 1019.80 1018.90 1018.65 1018.08 1017.43 1017.35 1017.40 1017.17 1017.06
1023.07 1022.89 1022.88 1022.81 1022.53 1022.16 1021.82 1021.67 1021.64 1021.28 1021.28 1022.32 1023.53 1023.82 1023.93 1024.28 1024.32 1024.00 1023.03 1022.37 1021.93 1021.62 1021.20 1020.99 1021.06 1021.10 1020.78 1020.46 1020.45 1020.42 1020.49 1020.61 1020.72 1021.06 1020.97 1021.01 1021.10 1021.09 1020.14 1018.99 1018.17 1017.47 1015.80 1016.12 1016.09 1016.10 1016.30
1022.93 1022.81 1022.42 1022.80 1022.69 1022.50 1022.26 1021.99 1021.78 1021.59 1021.45 1022.27 1023.14 1023.55 1024.33 1024.55 1024.40 1023.88 1023.32 1022.88 1022.31 1021.83 1021.66 1021.25 1021.13 1021.25 1020.90 1020.57 1020.50 1020.47 1020.54 1020.45 1020.62 1020.64 1020.83 1021.08 1021.36 1021.41 1020.71 1019.17 1017.72 1015.67 1015.19 1015.21 1015.44 1015.29 1015.28
1022.56 1022.67 1022.45 1022.11 1022.64 1022.51 1022.32 1022.09 1021.95 1021.79 1021.76 1022.18 1022.96 1023.34 1024.10 1024.29 1023.97 1023.41 1022.92 1022.84 1022.41 1022.12 1021.84 1021.25 1020.71 1020.53 1020.56 1020.62 1020.88 1020.85 1020.73 1020.59 1020.45 1020.45 1020.64 1020.81 1021.18 1021.44 1021.14 1020.13 1017.00 1014.95 1014.90 1014.88 1014.97 1014.08 1013.70
1021.95 1021.97 1022.34 1022.05 1021.70 1022.03 1022.16 1022.10 1022.08 1021.96 1022.04 1022.60 1023.00 1023.06 1023.55 1024.26 1023.61 1022.86 1022.70 1022.45 1022.45 1022.26 1022.00 1021.29 1020.65 1020.48 1020.60 1021.04 1021.40 1021.61 1021.51 1021.14 1020.90 1020.63 1020.72 1021.02 1021.05 1021.49 1021.38 1020.23 1017.20 1014.43 1014.02 1014.03 1014.32 1013.84 1013.01
1021.48 1021.36 1021.55 1021.88 1021.83 1021.74 1021.98 1022.00 1021.96 1022.01 1022.00 1022.34 1022.84 1023.09 1023.46 1023.99 1023.04 1022.82 1022.69 1022.46 1022.25 1022.18 1021.97 1021.35 1021.10 1021.13 1021.06 1021.48 1021.87 1022.04 1021.61 1021.04 1021.08 1020.82 1020.67 1020.93 1021.24 1021.24 1020.79 1019.75 1016.39 1014.07 1013.86 1013.95 1014.17 1013.42 1012.81
1020.84 1021.08 1020.87 1020.92 1021.15 1021.56 1021.53 1021.66 1021.68 1021.66 1021.83 1022.35 1022.95 1022.89 1022.93 1023.47 1022.60 1022.21 1021.95 1021.96 1021.95 1022.18 1022.02 1021.60 1021.72 1021.45 1021.69 1022.00 1022.16 1021.96 1021.84 1021.24 1021.18 1020.07 1019.63 1019.82 1020.33 1020.51 1020.25 1019.09 1016.04 1013.73 1014.38 1014.11 1012.67 1012.42 1012.66
1019.92 1020.43 1020.51 1020.48 1020.37 1020.58 1020.89 1021.10 1021.10 1021.39 1021.58 1021.89 1022.72 1022.84 1022.84 1023.08 1022.08 1021.49 1020.92 1020.41 1020.40 1020.60 1021.35 1021.80 1021.77 1021.43 1021.15 1021.60 1022.06 1021.95 1021.82 1021.59 1021.26 1020.72 1019.45 1019.42 1018.14 1018.05 1017.52 1015.05 1013.23 1013.09 1012.37 1011.99 1012.15 1012.58 1012.71
Wind_Speed
22 19 19 18 18 14 12 12 6 7 5 1 8 6 5 4 4 3 4 4 6 13 18 14 13 9 3 8 4 6 13 8 8 7 7 4 6 3 4 3 4 2 4 6 6 8 6
18 20 20 22 18 14 14 11 8 8 3 5 5 4 2 1 0 1 5 3 7 20 18 15 12 4 5 8 4 4 8 7 7 6 7 7 4 3 5 3 2 2 4 7 7 7 6
18 20 21 22 19 17 16 12 10 9 5 9 3 2 4 2 4 5 7 7 15 20 17 16 10 1 14 6 3 5 7 3 4 4 6 4 3 7 1 1 3 3 5 6 2 2 5
21 22 22 20 18 17 17 16 13 12 10 8 5 5 5 5 9 12 11 13 24 21 17 12 4 4 6 4 1 7 3 4 7 5 4 4 6 5 3 1 6 5 3 5 4 6 5
23 25 25 22 19 17 14 12 10 10 10 11 10 7 4 4 6 25 27 24 22 21 15 4 5 6 5 3 4 2 3 3 2 4 7 5 6 4 5 4 5 6 3 3 8 3 3
24 26 25 22 18 17 17 16 14 11 10 7 6 6 8 7 21 24 24 19 19 12 5 2 4 8 3 2 2 2 2 4 5 4 5 7 6 4 4 5 2 3 4 4 7 5 3
24 25 25 23 21 16 16 16 17 14 13 5 7 10 27 25 27 25 15 4 6 9 10 5 2 5 4 1 3 5 1 3 3 6 3 3 6 2 4 4 2 1 4 10 13 12 6
23 24 24 24 24 24 21 19 17 18 20 20 23 20 24 20 14 7 2 5 4 5 9 7 7 6 2 1 3 3 1 3 4 2 2 4 1 6 5 4 5 4 10 12 13 5 5
25 24 23 24 23 22 20 18 14 17 21 23 22 17 19 13 7 9 7 5 5 3 7 4 2 3 1 3 2 2 1 1 2 3 2 3 6 3 4 6 8 8 9 9 9 6 11
23 25 24 23 22 22 21 24 20 17 18 16 18 17 11 2 5 2 5 7 5 1 8 8 5 3 2 2 4 2 3 1 1 3 4 5 2 1 4 9 8 8 7 14 14 8 6
21 23 23 21 20 20 21 23 23 21 19 16 13 11 13 11 3 4 4 7 6 4 8 5 3 2 2 2 3 1 1 3 2 3 1 7 4 4 6 7 9 9 6 6 10 9 6
17 19 21 20 18 18 19 19 20 20 20 18 17 14 6 5 4 2 6 5 4 9 1 4 2 2 1 1 1 1 2 1 0 4 7 11 1 4 6 3 12 9 10 11 5 2 2
14 15 17 18 18 17 17 16 15 16 15 11 11 15 8 3 1 6 4 4 7 8 3 2 1 1 2 2 1 3 2 2 2 4 5 5 4 3 4 4 4 5 4 4 5 4 5
12 12 13 15 16 15 14 12 10 12 12 10 3 8 4 3 3 4 3 7 11 2 3 0 2 0 2 1 3 2 3 3 4 2 4 3 8 4 5 5 2 2 1 2 4 3 4
9 10 10 10 11 11 9 9 10 13 14 6 5 3 2 4 4 3 6 7 7 5 3 4 2 1 2 2 3 2 3 2 3 6 1 3 7 4 5 4 3 1 2 1 3 4 2
9 9 8 7 7 6 7 7 11 14 12 5 3 2 3 5 3 5 7 3 1 3 2 1 2 3 1 2 2 0 1 3 1 4 3 3 7 4 3 3 3 3 3 2 2 4 4
6 7 8 7 6 7 6 7 10 14 13 4 4 4 3 5 2 6 5 1 2 3 3 3 3 2 3 2 3 3 4 3 2 1 5 1 2 8 3 1 1 3 3 3 1 2 1
5 5 4 6 8 8 7 9 11 16 11 7 2 4 2 2 6 2 2 0 3 2 1 2 2 4 3 2 2 3 3 5 4 2 2 4 3 5 4 5 2 2 2 1 3 3 1
7 4 3 4 6 8 9 9 12 15 11 3 3 2 3 3 5 3 4 1 2 2 2 3 3 3 2 1 2 3 3 3 4 3 3 3 1 5 8 7 5 3 3 1 2 1 3
10 8 3 5 5 7 9 10 11 12 9 5 3 4 6 6 1 5 2 2 3 3 0 2 3 2 3 2 2 3 3 2 4 2 3 4 3 6 7 7 2 7 6 2 3 2 2
9 9 7 6 5 5 7 9 10 11 6 4 3 0 3 3 5 3 1 1 2 4 3 5 1 3 1 3 3 2 2 6 3 5 2 1 4 3 7 8 4 6 7 4 3 5 3
6 8 7 5 5 4 5 8 9 9 4 5 3 3 2 1 2 1 3 1 0 2 1 2 1 4 1 3 4 3 2 1 2 6 4 3 4 3 6 1 3 7 8 7 5 3 4
9 6 8 6 5 4 4 6 9 7 5 3 1 2 4 1 2 1 3 2 2 1 2 2 2 2 3 5 4 6 5 4 4 2 3 3 3 5 6 5 7 6 6 8 4 4 6
10 8 5 7 6 3 4 6 8 7 5 3 2 4 4 3 2 3 2 2 3 2 3 3 3 2 3 4 5 2 3 7 6 7 6 1 1 1 5 8 5 6 1 2 5 7 9
12 10 8 5 8 7 6 5 7 5 4 4 2 4 3 2 3 3 5 4 5 4 4 4 5 5 1 4 3 5 4 3 1 1 5 4 3 1 1 2 9 1 4 6 6 8 10
13 11 12 9 7 7 8 8 5 4 4 4 1 2 3 4 5 1 2 4 5 3 4 5 3 0 3 2 2 1 3 1 3 4 3 4 3 3 0 2 5 6 3 4 3 6 3
15 13 12 12 10 8 8 8 8 5 4 3 1 1 4 2 4 5 4 4 3 1 3 3 3 0 2 2 1 3 4 4 3 3 4 2 1 5 4 5 11 6 4 5 3 8 1
16 16 13 13 11 11 10 10 9 8 5 3 1 3 4 3 6 8 7 6 2 2 3 2 3 1 2 1 3 3 3 4 2 5 6 8 7 5 2 3 10 7 5 7 6 2 2
17 17 15 13 12 12 11 13 13 12 8 6 1 1 1 3 6 5 7 6 8 8 5 1 4 3 5 4 2 2 3 1 3 5 2 4 7 6 11 10 5 8 7 6 5 4 3
Wind_Direction
354 358 3 7 2 -0 349 336 12 8 358 25 189 181 211 222 169 269 270 256 279 163 139 140 138 138 81 54 52 321 52 14 31 45 44 54 51 70 78 40 349 41 349 335 313 293 263
9 10 8 15 6 4 18 26 34 17 34 113 82 107 124 139 309 232 255 265 266 150 133 134 133 145 74 78 306 57 57 39 45 56 37 43 75 77 86 70 56 294 270 273 268 258 256
25 18 19 16 19 50 39 44 32 28 51 121 162 37 61 13 327 258 251 226 129 125 126 126 133 37 63 75 17 57 56 28 31 62 62 22 66 71 93 61 324 321 338 317 331 350 297
33 21 21 30 41 49 48 48 59 53 62 74 74 69 64 359 327 267 205 149 134 119 113 113 85 62 73 334 139 53 61 43 38 30 74 40 66 89 51 4 11 10 45 359 318 335 288
34 34 32 41 50 51 39 24 34 38 28 64 69 61 14 354 74 98 110 112 104 100 101 96 51 86 79 336 58 24 34 88 58 28 26 47 52 67 25 56 15 12 320 314 313 310 281
38 40 36 55 48 40 34 41 60 58 44 48 74 45 356 151 121 104 97 100 97 89 58 70 78 67 337 144 139 82 17 67 60 30 18 37 47 57 37 58 244 274 331 287 247 279 308
46 47 51 51 55 40 44 44 40 35 17 335 129 79 80 103 103 98 99 62 43 29 34 65 79 78 91 168 34 33 35 71 40 49 24 24 49 280 222 206 203 259 240 269 262 267 277
54 54 47 50 51 50 42 40 28 30 47 75 116 104 90 78 42 35 84 66 41 158 69 32 53 60 101 137 87 6 49 75 54 7 316 7 245 235 209 208 220 219 274 273 287 267 200
65 59 52 54 47 44 42 31 39 41 67 80 92 99 96 82 54 43 70 49 338 5 95 31 56 76 319 48 82 217 57 107 80 314 239 201 235 155 180 271 266 242 235 253 238 307 255
67 69 59 52 46 43 40 47 70 56 50 82 77 49 28 305 35 7 46 331 324 258 81 346 359 358 339 101 42 356 34 94 351 315 342 241 227 198 236 259 215 282 222 243 264 289 308
67 73 67 55 51 49 49 57 62 53 46 41 45 44 44 50 119 49 318 307 293 59 71 300 331 262 340 75 163 260 253 45 250 292 124 256 199 233 271 256 167 241 239 246 272 260 301
61 70 76 66 58 51 51 62 62 64 53 46 32 14 31 27 54 183 286 298 42 44 1 324 309 345 347 208 204 63 340 126 200 272 242 256 74 229 229 258 210 253 291 280 269 278 293
57 58 69 75 69 66 65 64 67 55 43 38 29 37 44 16 11 324 309 40 42 80 273 279 187 339 291 251 205 183 240 244 210 331 332 315 206 223 183 263 211 223 298 332 353 5 237
47 55 55 69 77 72 76 72 51 23 14 6 64 43 6 90 302 321 44 48 66 244 203 9 127 195 296 181 253 227 291 294 206 203 305 1 332 193 173 209 243 199 207 248 270 310 290
35 37 41 49 70 81 71 55 30 7 353 359 85 4 12 322 355 63 66 51 172 201 185 158 119 147 291 291 204 291 207 248 232 170 185 342 282 275 194 170 182 180 259 174 277 241 349
16 24 19 19 24 52 58 32 13 8 4 49 73 48 283 330 351 67 71 124 175 220 192 163 139 168 45 273 226 173 272 214 246 171 190 289 296 265 298 152 235 218 283 335 332 339 323
1 356 8 356 345 353 8 8 5 5 9 93 54 51 265 351 56 53 95 221 261 247 209 150 156 164 233 222 223 232 258 289 141 83 170 235 165 289 338 9 312 345 358 290 318 163 330
8 335 348 344 337 334 343 342 353 360 15 51 78 36 315 39 51 20 75 108 342 330 8 285 218 207 191 214 264 249 252 216 184 168 229 193 169 282 272 321 316 212 356 53 107 344 77
9 351 285 310 321 328 332 337 345 359 25 104 66 279 331 75 91 13 314 320 189 7 7 356 342 11 4 263 278 221 261 253 184 178 214 177 235 329 341 345 352 49 314 267 251 77 234
346 6 232 273 299 319 324 327 337 355 27 81 74 13 335 43 49 106 48 342 341 332 151 19 349 20 347 279 224 287 291 307 335 225 247 144 190 176 191 219 197 303 316 27 114 75 184
332 341 351 259 285 303 317 324 333 344 34 88 42 78 171 341 360 34 138 300 345 3 33 22 56 73 308 306 312 272 308 322 335 8 50 68 263 191 253 244 221 238 258 306 180 221 184
318 326 337 344 275 300 318 326 336 345 33 83 109 124 71 105 282 23 335 177 303 314 223 302 110 311 237 244 221 274 5 312 301 327 27 1 286 343 283 68 285 266 238 238 238 220 240
289 308 323 332 333 353 22 17 0 12 58 90 98 35 100 290 359 23 219 182 200 344 254 240 234 286 266 236 215 226 221 238 227 316 313 23 0 9 277 335 303 301 238 190 199 204 167
269 279 292 312 313 322 4 20 16 29 86 124 162 111 93 278 118 204 323 315 264 244 244 258 190 202 287 340 299 269 237 242 220 236 202 247 49 140 277 340 2 235 219 192 227 244 220
262 264 266 273 296 297 305 338 19 28 90 93 157 114 120 266 212 270 216 217 301 302 271 240 232 212 154 29 4 346 338 326 289 252 195 188 128 293 296 234 280 326 184 179 178 280 209
251 253 260 257 251 271 286 297 317 46 116 83 110 124 115 115 250 215 188 191 196 217 310 251 280 60 73 91 87 175 251 253 308 338 81 82 86 131 302 307 246 229 192 181 151 291 252
243 245 247 254 261 265 272 274 283 297 181 118 163 195 95 150 252 147 199 192 169 157 219 283 256 230 61 132 171 198 257 192 224 228 195 217 198 196 204 254 285 236 191 146 128 234 223
235 242 239 237 242 257 264 258 254 256 196 125 274 205 134 184 264 187 191 182 157 154 194 270 31 293 68 176 173 213 195 238 290 238 192 180 158 208 129 233 283 153 85 173 222 280 231
228 236 237 233 232 235 248 264 258 247 220 152 182 236 161 161 239 215 222 202 184 180 155 226 201 211 209 107 215 126 236 222 196 273 79 262 198 189 189 215 240 210 209 212 162 201 251